World > North America > United States > California
Hourly Weather in Dockweiler, CaliforniaDockweiler, California Hourly Weather

Dockweiler, CA Hourly Weather

Hourly Weather Dockweiler, CaliforniaHourly Weather in Dockweiler, CA
Lat: 34.03N, Lon: 118.28W  ICAO: KCQT
Web Search

Helpful Tip: Abbreviated, 7 Day, 14 Day Forecasts. There is a weather forecast for every taste.

Feedback

Dockweiler Hourly Weather

36 Hour Weather Scroll   °F Click to change Dockweiler hourly weather to Imperial units.Click to change Dockweiler hourly weather to Metric units. °C
Currently, Hazy, temperature is 65°F18°C, dew point 54°F12°C, humidity 68%. Wind direction is N at 0 mph0 km/h with visibility of 3.00 mi5 km. Barometric pressure is 29.97 in1015 mb.

Dec 06
4:00 PM

Dec 06
5:00 PM

Dec 06
6:00 PM

Dec 06
7:00 PM

Dec 06
8:00 PM

Dec 06
9:00 PM

Dec 06
10:00 PM

Dec 06
11:00 PM

Dec 07
MIDNIGHT

Dec 07
1:00 AM

Dec 07
2:00 AM

Dec 07
3:00 AM

Dec 07
4:00 AM

Dec 07
5:00 AM

Dec 07
6:00 AM

Dec 07
7:00 AM

Dec 07
8:00 AM

Dec 07
9:00 AM

Dec 07
10:00 AM

Dec 07
11:00 AM

Dec 07
NOON

Dec 07
1:00 PM

Dec 07
2:00 PM

Dec 07
3:00 PM

Dec 07
4:00 PM

Dec 07
5:00 PM

Dec 07
6:00 PM

Dec 07
7:00 PM

Dec 07
8:00 PM

Dec 07
9:00 PM

Dec 07
10:00 PM

Dec 07
11:00 PM

Dec 08
MIDNIGHT

Dec 08
4:00 AM

Dec 08
5:00 AM

Dec 08
6:00 AM
Cloudy Cloudy Mostly Cloudy Mostly Cloudy Mostly Cloudy Mostly Cloudy Mostly Cloudy Mostly Cloudy Mostly Cloudy Mostly Cloudy Mostly Cloudy Mostly Clear Mostly Clear Mostly Clear Mostly Clear Mostly Clear Mostly Clear Mostly Cloudy Mostly Cloudy Mostly Cloudy Mostly Cloudy Mostly Cloudy Mostly Cloudy Mostly Cloudy Mostly Cloudy Mostly Cloudy Cloudy Cloudy Cloudy Cloudy Cloudy Cloudy Cloudy Cloudy Cloudy Cloudy
Cloudy Cloudy Mostly Cloudy Mostly Cloudy Mostly Cloudy Mostly Cloudy Mostly Cloudy Mostly Cloudy Mostly Cloudy Mostly Cloudy Mostly Cloudy Mostly Clear Mostly Clear Mostly Clear Mostly Clear Mostly Clear Mostly Clear Mostly Cloudy Mostly Cloudy Mostly Cloudy Mostly Cloudy Mostly Cloudy Mostly Cloudy Mostly Cloudy Mostly Cloudy Mostly Cloudy Cloudy Cloudy Cloudy Cloudy Cloudy Cloudy Cloudy Cloudy Cloudy Cloudy
63°F17°C 62°F17°C 60°F16°C 59°F15°C 58°F14°C 58°F14°C 57°F14°C 57°F14°C 56°F13°C 56°F13°C 56°F13°C 55°F13°C 55°F13°C 55°F13°C 54°F12°C 54°F12°C 56°F13°C 59°F15°C 61°F16°C 63°F17°C 64°F18°C 66°F19°C 65°F18°C 64°F18°C 63°F17°C 62°F17°C 62°F17°C 61°F16°C 61°F16°C 61°F16°C 61°F16°C 60°F16°C 59°F15°C 58°F14°C 57°F14°C 55°F13°C
- - - - - - - - - - - - - - - - - - - - - - - - - - - - - - - Rain Rain Rain Rain Rain
14% 7% 7% 7% 7% 7% 7% 8% 8% 8% 8% 8% 8% 6% 6% 6% 6% 6% 6% 5% 5% 5% 5% 5% 5% 19% 19% 19% 19% 19% 19% 55% 55% 55% 77% 77%
54°F12°C 54°F12°C 54°F12°C 54°F12°C 54°F12°C 54°F12°C 54°F12°C 53°F12°C 53°F12°C 52°F11°C 51°F11°C 51°F11°C 50°F10°C 50°F10°C 50°F10°C 50°F10°C 51°F11°C 51°F11°C 52°F11°C 52°F11°C 53°F12°C 53°F12°C 54°F12°C 54°F12°C 55°F13°C 55°F13°C 54°F12°C 54°F12°C 53°F12°C 53°F12°C 52°F11°C 51°F11°C 51°F11°C 50°F10°C 50°F10°C 50°F10°C
72% 75% 81% 83% 87% 87% 90% 86% 90% 86% 83% 86% 83% 83% 86% 86% 83% 75% 72% 67% 67% 63% 68% 70% 75% 78% 75% 78% 75% 75% 72% 72% 75% 75% 77% 83%
E E E E ENE NE N NE ENE E E ENE NE ENE E E E E E E ESE ESE SSE SW SSW SW SW S S SSE SE SE SE SE E NE
1 mph 1 mph 1 mph 1 mph 1 mph 0 mph 0 mph 0 mph 1 mph 1 mph 1 mph 1 mph 1 mph 1 mph 1 mph 1 mph 1 mph 1 mph 1 mph 1 mph 1 mph 1 mph 1 mph 1 mph 1 mph 1 mph 1 mph 1 mph 1 mph 1 mph 1 mph 1 mph 3 mph 3 mph 3 mph 5 mph
10 mi16 km 10 mi16 km 10 mi16 km 10 mi16 km 10 mi16 km 10 mi16 km 10 mi16 km 10 mi16 km 10 mi16 km 10 mi16 km 10 mi16 km 10 mi16 km 10 mi16 km 6 mi10 km 6 mi10 km 5 mi8 km 6 mi10 km 6 mi10 km 10 mi16 km 10 mi16 km 10 mi16 km 10 mi16 km 10 mi16 km 10 mi16 km 10 mi16 km 10 mi16 km 10 mi16 km 10 mi16 km 6 mi10 km 6 mi10 km 5 mi8 km 5 mi8 km 5 mi8 km 5 mi8 km 5 mi8 km 3 mi5 km
Hour (PST)
Weather
Clouds
Temperature
Precip. Type
POP
Dewpoint
Humidity
Wind Direction
Wind Speed
Visibility
POP = Probability of Precipitation. ** Indicates missing data/values from model statistics.

24 Hour Forecast

Tonight - Areas of low clouds and fog in the evening then cloudy. Lows in the lower to mid 50s.
Tuesday - Mostly cloudy. A 40% chance of rain in the morning. Highs in the upper 50s to mid 60s.

48 Hour Forecast API Feed


Mon, Dec 6
4:00 pm

Mon, Dec 6
5:00 pm

Mon, Dec 6
6:00 pm

Mon, Dec 6
7:00 pm

Mon, Dec 6
8:00 pm

Mon, Dec 6
9:00 pm

Mon, Dec 6
10:00 pm

Mon, Dec 6
11:00 pm

Tue, Dec 7
Midnight

Tue, Dec 7
1:00 am

Tue, Dec 7
2:00 am

Tue, Dec 7
3:00 am

Tue, Dec 7
4:00 am

Tue, Dec 7
5:00 am

Tue, Dec 7
6:00 am

Tue, Dec 7
7:00 am

Tue, Dec 7
8:00 am

Tue, Dec 7
9:00 am

Tue, Dec 7
10:00 am

Tue, Dec 7
11:00 am

Tue, Dec 7
Noon

Tue, Dec 7
1:00 pm

Tue, Dec 7
2:00 pm

Tue, Dec 7
3:00 pm

Tue, Dec 7
4:00 pm

Tue, Dec 7
5:00 pm

Tue, Dec 7
6:00 pm

Tue, Dec 7
7:00 pm

Tue, Dec 7
8:00 pm

Tue, Dec 7
9:00 pm

Tue, Dec 7
10:00 pm

Tue, Dec 7
11:00 pm

Wed, Dec 8
Midnight

Wed, Dec 8
1:00 am

Wed, Dec 8
2:00 am

Wed, Dec 8
3:00 am

Wed, Dec 8
4:00 am

Wed, Dec 8
5:00 am

Wed, Dec 8
6:00 am

Wed, Dec 8
7:00 am

Wed, Dec 8
8:00 am

Wed, Dec 8
9:00 am

Wed, Dec 8
10:00 am

Wed, Dec 8
11:00 am

Wed, Dec 8
Noon

Wed, Dec 8
1:00 pm

Wed, Dec 8
2:00 pm

Wed, Dec 8
3:00 pm
SunnyClearClearClearClearClearClearClearPartly CloudyPartly CloudyPatchy Rain PossibleOvercastOvercastOvercastPatchy Rain PossibleOvercastLight DrizzleOvercastLight Rain ShowerCloudyCloudyCloudyPatchy Rain PossibleCloudyCloudyPartly CloudyPartly CloudyClearClearClearClearClearClearClearClearClearClearClearClearSunnySunnySunnySunnySunnySunnySunnySunnySunny
Sunny Clear Clear Clear Clear Clear Clear Clear Partly cloudy Partly cloudy Patchy rain possible Overcast Overcast Overcast Patchy rain possible Overcast Light drizzle Overcast Light rain showers Cloudy Cloudy Cloudy Patchy rain possible Cloudy Cloudy Partly cloudy Partly cloudy Clear Clear Clear Clear Clear Clear Clear Clear Clear Clear Clear Clear Sunny Sunny Sunny Sunny Sunny Sunny Sunny Sunny Sunny
68°F
20°C
66°F
19°C
64°F
18°C
64°F
18°C
60°F
16°C
59°F
15°C
59°F
15°C
58°F
15°C
58°F
14°C
57°F
14°C
58°F
14°C
58°F
15°C
59°F
15°C
59°F
15°C
59°F
15°C
59°F
15°C
59°F
15°C
59°F
15°C
60°F
15°C
61°F
16°C
62°F
17°C
63°F
17°C
64°F
18°C
64°F
18°C
64°F
18°C
64°F
18°C
63°F
17°C
63°F
17°C
61°F
16°C
60°F
16°C
60°F
15°C
59°F
15°C
57°F
14°C
57°F
14°C
56°F
14°C
56°F
13°C
56°F
13°C
56°F
13°C
55°F
13°C
55°F
13°C
55°F
13°C
56°F
14°C
58°F
15°C
61°F
16°C
63°F
17°C
63°F
17°C
64°F
18°C
64°F
18°C
51°F
10°C
51°F
11°C
52°F
11°C
54°F
12°C
52°F
11°C
52°F
11°C
53°F
12°C
53°F
12°C
53°F
12°C
53°F
12°C
54°F
12°C
54°F
12°C
54°F
12°C
54°F
12°C
54°F
12°C
54°F
12°C
54°F
12°C
54°F
12°C
53°F
12°C
53°F
12°C
52°F
11°C
52°F
11°C
51°F
11°C
51°F
11°C
51°F
11°C
51°F
11°C
52°F
11°C
53°F
12°C
52°F
11°C
52°F
11°C
53°F
12°C
52°F
11°C
51°F
11°C
50°F
10°C
49°F
10°C
50°F
10°C
49°F
10°C
49°F
10°C
49°F
9°C
48°F
9°C
48°F
9°C
48°F
9°C
49°F
10°C
50°F
10°C
51°F
10°C
50°F
10°C
50°F
10°C
50°F
10°C
29.97 in
1015 mb
29.94 in
1014 mb
29.97 in
1015 mb
29.97 in
1015 mb
29.97 in
1015 mb
29.97 in
1015 mb
29.97 in
1015 mb
30 in
1016 mb
29.97 in
1015 mb
29.94 in
1014 mb
29.91 in
1013 mb
29.91 in
1013 mb
29.91 in
1013 mb
29.88 in
1012 mb
29.88 in
1012 mb
29.88 in
1012 mb
29.91 in
1013 mb
29.91 in
1013 mb
29.94 in
1014 mb
29.94 in
1014 mb
29.94 in
1014 mb
29.91 in
1013 mb
29.91 in
1013 mb
29.91 in
1013 mb
29.88 in
1012 mb
29.91 in
1013 mb
29.91 in
1013 mb
29.94 in
1014 mb
29.94 in
1014 mb
29.94 in
1014 mb
29.97 in
1015 mb
29.97 in
1015 mb
30 in
1016 mb
29.97 in
1015 mb
29.97 in
1015 mb
29.97 in
1015 mb
30 in
1016 mb
29.97 in
1015 mb
29.97 in
1015 mb
29.97 in
1015 mb
30 in
1016 mb
30 in
1016 mb
30.03 in
1017 mb
30.03 in
1017 mb
30 in
1016 mb
29.97 in
1015 mb
29.97 in
1015 mb
29.94 in
1014 mb
53%59%66%70%74%77%80%83%85%87%87%85%84%83%83%85%85%83%79%75%70%66%64%64%63%64%67%70%73%76%78%79%79%78%78%79%79%79%78%78%76%74%72%68%64%61%60%61%
SSWSSESSSESSESSESEESEESEESEEESEESEEEESEESEESEESEESEESESESESSESESSESSESSSSSWNWNWSSENENSEWNWNNWWNWSSWSWWSWSWSWSWSW
6 mph
9 km/h
6 mph
10 km/h
5 mph
8 km/h
5 mph
8 km/h
6 mph
9 km/h
4 mph
6 km/h
4 mph
6 km/h
3 mph
5 km/h
5 mph
8 km/h
6 mph
9 km/h
5 mph
8 km/h
6 mph
9 km/h
5 mph
8 km/h
4 mph
7 km/h
4 mph
6 km/h
6 mph
10 km/h
6 mph
10 km/h
6 mph
10 km/h
5 mph
8 km/h
5 mph
8 km/h
5 mph
8 km/h
6 mph
9 km/h
6 mph
10 km/h
6 mph
10 km/h
7 mph
12 km/h
6 mph
10 km/h
5 mph
9 km/h
4 mph
7 km/h
4 mph
6 km/h
4 mph
7 km/h
3 mph
4 km/h
1 mph
2 km/h
1 mph
1 km/h
2 mph
3 km/h
1 mph
2 km/h
1 mph
2 km/h
0 mph
0 km/h
1 mph
2 km/h
3 mph
5 km/h
3 mph
5 km/h
3 mph
5 km/h
3 mph
5 km/h
2 mph
4 km/h
3 mph
5 km/h
4 mph
6 km/h
6 mph
10 km/h
8 mph
13 km/h
9 mph
14 km/h
0%0%0%0%0%0%0%0%0%0%82%0%0%0%68%0%72%0%66%0%0%0%74%0%0%0%0%0%0%0%0%0%0%0%0%0%0%0%0%0%0%0%0%0%0%0%0%0%
6 mi
10 km
6 mi
10 km
6 mi
10 km
6 mi
10 km
6 mi
10 km
6 mi
10 km
6 mi
10 km
6 mi
10 km
6 mi
10 km
6 mi
10 km
6 mi
10 km
6 mi
10 km
6 mi
10 km
6 mi
10 km
6 mi
10 km
6 mi
10 km
1 mi
2 km
6 mi
10 km
6 mi
10 km
6 mi
10 km
6 mi
10 km
6 mi
10 km
6 mi
10 km
6 mi
10 km
6 mi
10 km
6 mi
10 km
6 mi
10 km
6 mi
10 km
6 mi
10 km
6 mi
10 km
6 mi
10 km
6 mi
10 km
6 mi
10 km
6 mi
10 km
6 mi
10 km
6 mi
10 km
6 mi
10 km
6 mi
10 km
6 mi
10 km
6 mi
10 km
6 mi
10 km
6 mi
10 km
6 mi
10 km
6 mi
10 km
6 mi
10 km
6 mi
10 km
6 mi
10 km
6 mi
10 km

Day/Time
Weather
Condition
Temperature
Dew Point
Pressure
Humidity
Wind Direction
Wind Speed
Prob Precip %
Visibility
Prob Precip % = Probability of Precipitation.